User: anonymous   Login
Location: Kuppenheim
(48.8299°N, 8.2568°E)
Time: 01:56:38
(UTC+00:00)
Language:

Cosmos 1271 Rocket - Orbit

View from above orbital plane
View from above orbital plane
View from above satellite
View from above satellite

Ground track
Ground track

The orbit data is extracted from the following two-line orbital elements,

1 12465U 81046B   21268.15999347  .00001481  00000-0  76593-4 0  9991
2 12465  81.2446  29.6318 0034547 139.6243 220.7560 15.15089482190639
Epoch (UTC): 25 September 2021 03:50:23
Eccentricity: 0.0034547
inclination: 81.2446°
perigee height: 497 km
apogee height: 544 km
right ascension of ascending node: 29.6318°
argument of perigee: 139.6243°
revolutions per day: 15.15089482
mean anomaly at epoch: 220.7560°
orbit number at epoch: 19063

The dashed part of the orbit path shows where the satellite is in the earth's shadow,  

DLR